Regional Weather Roundup
Issued by NWS

Home | Current Version | Previous Version | Text Only | Print | Product List | Glossary Off
Versions: 1 2 3 4 5 6 7 8 9 10 11 12 13 14 15 16 17 18 19 20 21 22 23 24 25 26 27 28 29 30 31 32 33 34 35 36 37 38 39 40 41 42 43 44 45 46 47 48 49 50

000
ASUS43 KMKX 190900
RWRWI

WISCONSIN REGIONAL WEATHER ROUNDUP
NATIONAL WEATHER SERVICE MILWAUKEE/SULLIVAN WI
400 AM CDT FRI SEP 19 2014

NOTE: "FAIR" INDICATES FEW OR NO CLOUDS BELOW 12,000 FEET WITH NO
SIGNIFICANT WEATHER AND/OR OBSTRUCTIONS TO VISIBILITY.

WIZ001-002-006>008-014>016-023>028-191000-
NORTHWEST WISCONSIN

CITY           SKY/WX    TMP DP  RH WIND       PRES   REMARKS
SUPERIOR ARPT  CLOUDY    46  46 100 CALM      29.94F FOG
ASHLAND        CLOUDY    54  51  90 S8        29.98F
HAYWARD        CLOUDY    53  51  93 S6        30.00S
SIREN          CLOUDY    58  53  84 S12G17    29.96F
RICE LAKE      MOCLDY    51  50  95 SE9       30.02F FOG
LADYSMITH      MOCLDY    52  50  94 SE7       30.05F
EAU CLAIRE     NOT AVBL
MENOMONIE      PTSUNNY   52  51  97 E7        30.02F FOG
NEW RICHMOND   MOCLDY    56  54  91 S9        29.99F
OSCEOLA        MOCLDY    56  56  97 SE8       29.99F
$$

WIZ003>005-009-010-017-018-191000-
NORTH CENTRAL WISCONSIN

CITY           SKY/WX    TMP DP  RH WIND       PRES   REMARKS
WOODRUFF       CLOUDY    52  50  93 S13       30.06F FOG
RHINELANDER    CLOUDY    50  49  96 S9        30.09F FOG
EAGLE RIVER    FOG       48  48 100 S7        30.08F VSB 1
LAND O LAKES   CLOUDY    50  49  98 S7        30.08F FOG
PHILLIPS       CLOUDY    51  49  95 S12       30.04F
TOMAHAWK       FOG       49  48  97 S5        30.09F VSB 1
MEDFORD        CLOUDY    50  49  98 S12       30.08S FOG
MERRILL        FOG       51  51 100 S3        30.09F VSB 1
$$

WIZ029-030-035-036-043>047-191000-
CENTRAL WISCONSIN

CITY           SKY/WX    TMP DP  RH WIND       PRES   REMARKS
WAUSAU         FOG       51  51 100 S9        30.09F VSB 1
MOSINEE        LGT RAIN  48  48 100 SE6       30.12F VSB 1/4
MARSHFIELD     FOG       51  51 100 S9        30.08F VSB 1/2
STEVENS POINT  FOG       49  49  99 SE6       30.13S VSB 1
WAUPACA        FOG       48  47  95 CALM      30.15R VSB 1/4
WAUTOMA        NOT AVBL
WISC RAPIDS    CLOUDY    50  49  96 SE5       30.12F FOG
CAMP DOUGLAS   PTCLDY    45  45 100 E6        30.09F FOG
$$

WIZ011>013-019>022-031-037>040-048>050-191000-
NORTHEAST WISCONSIN

CITY           SKY/WX    TMP DP  RH WIND       PRES   REMARKS
ANTIGO         FOG       47  47 100 S9        30.11F VSB 1/4
STURGEON BAY   MOCLDY    52  46  82 S8        30.14F
GREEN BAY      CLEAR     43  42  97 CALM      30.14S FOG
MANITOWOC      MOCLDY    46  45  93 CALM      30.16R
APPLETON       PTCLDY    50  48  93 SE6       30.14S
CLINTONVILLE   FOG       41  41 100 CALM      30.14R VSB 3/4
OSHKOSH        FOG       51  50  96 S8        30.14R VSB 3/4
$$

WIZ032>034-041-042-053>061-191000-
SOUTHWEST WISCONSIN

CITY           SKY/WX    TMP DP  RH WIND       PRES   REMARKS
LA CROSSE      PTCLDY    58  52  80 S10       30.05F
SPARTA         PTCLDY    55  52  88 S10G16    30.08F
VIROQUA        FAIR      52  52 100 SE6       30.09F
BOSCOBEL       CLEAR     51  48  89 CALM      30.11S FOG
PRAIRIE DU CHI CLEAR     53  51  92 E3        30.09S
PLATTEVILLE    FAIR      50  49  96 CALM      30.12F
$$

WIZ056-057-062-063-064-067-068-191000-
SOUTH CENTRAL WISCONSIN

CITY           SKY/WX    TMP DP  RH WIND       PRES   REMARKS
BARABOO/DELLS  CLEAR     49  48  95 S5        30.12S FOG
LONE ROCK      NOT AVBL
WATERTOWN      CLOUDY    51  51 100 S3        30.14S FOG
MADISON        CLOUDY    54  52  93 S7        30.14F FOG
MIDDLETON      CLOUDY    53  53  99 SE3       30.14F
MONROE         FOG       52  50  93 E6        30.13S VSB 1/4
JANESVILLE     CLOUDY    55  54  94 SE5       30.14R FOG
$$

WIZ051-052-058>065-066-070>072-191000-
SOUTHEAST WISCONSIN

CITY           SKY/WX    TMP DP  RH WIND       PRES   REMARKS
MILWAUKEE      PTCLDY    57  55  93 SE6       30.14F FOG
WAUKESHA       CLOUDY    50  50 100 SE3       30.15F FOG
MILWAUKEE/TIMM MOCLDY    50  46  87 CALM      30.14F
RACINE         CLEAR     59  55  87 SE6       30.15F
BURLINGTON     FOG       50  50 100 CALM      30.14S VSB 1/4
KENOSHA        CLEAR     52  50  93 SE6       30.14F FOG
FOND DU LAC    CLOUDY    53  51  93 S5        30.15R
SHEBOYGAN      CLOUDY    48  47  96 CALM      30.16R
WEST BEND      CLOUDY    46  45  93 CALM      30.15S FOG
JUNEAU         FOG       52  52  99 SE7       30.15S VSB 1/4
$$

LSZ147-162-191000-
LAKE SUPERIOR

STATION/POSITION TIME  TEMP    WIND        PRES    WAVE
                       AIR SEA DIR/SP/G            HT/PER
                 (UTC) (F)     (DEG/KT/KT) (MB)    (FT/S)
W MID LAKE BUOY  0750   51 48  190/ 10/ 10 1015.5F   1/ 4
DEVILS ISLAND    0800   52     180/  9/ 14 1015.0F
PORT WING        0800   46     330/  2/  2 1014.6F
SAXON HARBOR     0840   57     200/  6/ 12 1015.2F
$$

LMZ867-665-643>646-191000-
LAKE MICHIGAN

STATION/POSITION TIME  TEMP    WIND        PRES    WAVE
                       AIR SEA DIR/SP/G            HT/PER
                 (UTC) (F)     (DEG/KT/KT) (MB)    (FT/S)
N MID LAKE BUOY  0750   57 58  200/ 16/ 19 1020.8F   1/ 3
NORTHPORT PIER   0800   51     170/  4/  5 1020.7F
SISTER BAY       0742   50        CALM       N/A
KEWAUNEE LAKESHO 0800   45     300/  2/  3 1019.7F
SHEBOYGAN LAKESH 0800   50 49  210/  3/  4 1021.3F
PORT WASHINGTON  0800   51     240/  1/  3 1021.7
ATWATER BUOY     0800   61     150/ 10/ 14 1021.7F
MILWAUKEE LAKESH 0800   60     140/  8/ 10   N/A
S MID LAKE BUOY  0750   61 62  140/ 14/ 17 1021.4F   2/ 4
KENOSHA   LAKESH 0800   62     140/ 12/ 15 1020.3F
$$

TC  - TEMPERATURE IN CELSIUS
VSB - VISIBILITY IN STATUTE MILES
WCI - WIND CHILL INDEX
HX  - HEAT INDEX




USA.gov is the U.S. government's official web portal to all federal, state and local government web resources and services.